SCP
0 -0 -0 0 -0 0 0 -0 -0 0 0 0 -0 -0 -0 -0 -0 0 0 -0 0 -0 0 0 0 0 0 0 0 -0 -0 -0 -0 0 -0 0 0 -0 -0 0 -0 0 -0 -0 -0
-0 -0 -0 0 0 -0 0 0 0 0 0 0 -0 -0 -0 0 0 0 0 0 0 -0 -0 0 -0 0 0 0 0 -0 -0 0 0 0 -0 0 0 -0 -0 -0 -0 -0 0 -0 -0
0 0 -0 -0 -0 0 -0 0 0 0 0 0 0 -0 -0 0 0 0 0 0 -0 0 -0 -0 -0 -0 0 0 0 0 -0 0 0 0 0 -0 -0 -0 -0 -0 -0 -0 -0 -0 -0
-0 0 0 -0 -0 -0 0 0 0 0 0 0 0 0 -0 0 0 0 0 0 -0 -0 -0 -0 -0 -0 -0 0 0 0 0 0 0 0 0 -0 -0 -0 -0 -0 -0 -0 -0 -0 -0
0 0 -0 -0 0 0 0 0 0 0 0 0 0 0 0 0 0 0 0 0 -0 -0 -0 0 -0 -0 -0 -0 0 -0 -0 -0 0 0 0 -0 -0 -0 0 -0 -0 -0 -0 -0 -0
-0 0 0 0 -0 0 0 0 -0 0 0 0 0 0 0 0 0 0 0 0 -0 -0 -0 0 0 0 -0 -0 0 -0 -0 0 -0 0 0 -0 0 0 -0 -0 -0 -0 -0 -0 -0
0 0 -0 0 0 -0 0 0 -0 0 0 0 0 0 0 0 0 0 0 0 -0 0 0 0 0 0 0 0 0 -0 0 0 0 0 0 0 0 -0 -0 -0 -0 0 0 -0 0
0 0 0 0 0 -0 -0 -0 -0 0 0 0 0 -0 0 0 0 0 0 0 0 0 0 0 0 0 0 0 0 -0 -0 -0 -0 0 0 -0 0 0 0 -0 -0 -0 0 0 0
0 0 0 0 0 0 -0 -0 -0 -0 0 0 0 0 0 0 0 0 0 0 0 0 0 0 0 0 0 0 0 0 -0 0 0 0 -0 -0 -0 -0 0 0 0 0 -0 0 0
0 0 0 0 0 0 0 -0 0 0 0 0 0 0 0 0 0 0 0 0 0 0 0 0 0 0 0 0 0 0 -0 0 0 0 0 -0 -0 -0 0 0 0 0 0 0 -0
-0 0 -0 0 0 0 0 0 0 -0 0 0 0 0 0 0 0 0 0 0 0 0 0 0 0 0 0 0 -0 0 0 0 0 0 0 0 -0 0 0 0 0 0 0 0 0
-0 -0 -0 -0 -0 -0 0 0 0 0 0 0 0 0 0 0 0 0 0 0 0 0 0 0 0 0 0 0 0 0 0 0 0 0 0 -0 0 0 0 0 0 0 0 0 0
0 0 0 -0 0 0 0 0 0 0 0 0 0 0 0 0 0 0 0 0 0 0 0 0 0 0 0 0 0 0 0 0 0 0 0 0 0 0 0 0 0 0 0 0 0
0 0 0 0 0 0 0 0 0 0 0 0 0 0 0 0 0 0 0 0 0 0 0 0 -0 0 0 0 0 0 0 0 0 0 0 0 0 0 0 0 0 0 0 0 1
0 0 0 0 0 0 0 0 0 0 0 0 0 0 0 0 0 0 -0 0 0 0 0 0 0 0 0 0 0 0 0 0 0 0 0 0 0 0 0 1 0 0 0 0 1
0 0 0 0 0 0 0 -0 0 0 0 0 0 0 0 0 0 0 0 0 0 0 0 0 0 0 0 0 0 0 0 0 0 0 0 -0 0 0 0 1 1 0 1 1 1
-0 -0 -0 -0 0 -0 -0 0 0 0 0 0 0 0 0 0 0 0 0 0 0 0 0 0 0 0 0 0 0 0 0 0 0 0 0 0 0 1 1 1 1 1 1 1 0
-0 -0 0 -0 -0 -0 -0 0 0 0 0 0 0 0 0 0 0 0 0 0 0 0 0 0 0 0 0 0 0 0 0 0 0 0 0 0 0 1 1 1 1 1 1 1 0
-0 0 -0 0 0 -0 -0 -0 0 0 0 0 0 0 0 0 0 0 0 0 0 0 0 0 0 0 0 0 0 0 0 0 0 0 0 0 1 1 1 0 1 1 1 1 0
-0 -0 0 0 0 0 0 -0 -0 -0 0 0 0 0 0 0 0 0 0 0 0 -0 -0 0 0 0 0 0 0 0 0 0 0 0 0 0 -0 0 1 1 1 1 1 1 1
-0 0 0 0 0 0 0 0 0 0 0 0 0 0 0 0 0 0 0 0 0 0 0 0 0 0 0 0 0 0 0 0 0 0 0 0 0 1 1 0 0 1 1 1 0
0 0 0 0 0 0 0 0 0 0 0 0 0 0 0 0 0 0 0 0 0 0 0 0 0 0 0 0 0 0 0 0 0 0 0 0 0 0 0 0 1 1 0 0 0
0 0 0 0 0 0 0 0 0 0 0 0 0 0 0 0 0 0 0 0 0 0 0 0 0 0 0 0 -0 0 0 -0 0 0 0 0 1 0 1 1 1 0 0 0 0
0 0 0 0 0 0 0 0 0 0 0 0 0 0 0 0 0 0 0 0 0 0 0 0 0 0 0 0 0 0 -0 0 0 0 -0 0 0 1 1 1 1 0 0 0 0
0 0 0 0 0 0 0 0 0 0 0 0 0 0 0 0 0 0 0 0 0 0 0 0 0 0 0 0 -0 0 -0 0 0 0 0 0 0 0 1 1 0 0 0 0 0
0 0 0 0 0 0 0 0 0 -0 -0 0 0 0 0 0 0 0 0 0 0 0 0 0 0 0 0 0 0 -0 -0 -0 0 -0 0 0 0 0 -0 -0 0 0 0 0 0
0 0 0 0 0 0 0 -0 -0 0 0 0 0 0 0 0 0 0 0 0 0 0 0 0 0 0 0 0 0 0 0 0 0 0 0 0 1 1 1 0 0 1 1 0 0
Wind_Speed_500mb
42 45 44 42 43 43 39 42 41 40 39 42 44 43 48 45 22 10 3 11 16 12 23 17 19 19 19 26 24 23 24 11 6 12 25 10 8 15 11 13 6 11 20 29 38
43 46 48 42 46 43 43 42 42 41 41 41 42 42 45 45 10 4 9 3 8 16 24 26 25 22 29 25 21 26 24 6 21 12 15 11 7 11 10 20 27 16 15 33 40
44 43 48 45 41 45 42 41 39 42 42 41 41 41 40 43 19 9 5 0 9 19 20 23 20 24 32 27 30 26 31 18 11 9 11 9 13 15 12 12 20 27 24 32 36
46 47 49 49 45 41 42 40 37 38 41 41 40 39 36 20 10 5 5 4 11 15 16 26 27 32 33 31 33 29 29 4 6 1 10 17 15 11 5 24 18 25 25 31 31
48 50 50 49 49 45 44 40 38 36 37 37 37 37 35 17 12 8 11 10 12 7 22 25 30 33 34 34 33 24 35 24 18 16 14 17 14 9 5 19 19 27 27 28 28
42 47 51 53 51 49 45 41 37 36 35 34 32 31 22 30 6 8 8 14 15 17 21 25 23 28 32 36 27 29 39 28 24 23 19 20 13 7 23 18 22 24 25 24 25
36 37 39 48 49 49 49 44 39 36 34 30 29 27 26 35 13 11 16 14 18 20 21 23 23 20 24 25 30 31 22 27 30 28 23 12 21 19 23 15 21 19 21 23 24
39 41 42 41 42 42 45 44 39 36 33 28 24 19 24 13 17 21 22 22 19 20 21 18 24 27 31 16 14 25 30 30 36 32 23 17 7 32 20 17 22 20 19 21 22
36 37 40 41 40 42 40 37 34 32 27 22 16 14 34 22 28 26 30 30 24 19 19 17 25 31 29 25 26 29 30 38 38 33 22 25 16 26 21 4 10 21 22 21 26
41 41 36 35 39 38 37 28 19 23 21 14 18 15 41 23 21 26 26 34 32 24 22 25 27 27 28 27 29 32 35 33 35 30 29 27 31 25 20 4 6 11 21 21 25
38 39 40 36 31 29 27 17 10 9 31 33 14 30 3 25 18 24 29 34 39 32 33 40 30 33 41 39 38 28 27 41 17 12 25 33 28 8 17 10 6 5 8 22 23
36 37 34 33 26 16 19 14 9 15 25 42 52 46 32 18 16 31 34 40 41 36 40 27 40 40 35 29 31 34 27 26 24 24 14 24 17 9 8 12 14 10 5 6 19
32 33 32 25 18 16 8 2 11 18 19 36 57 62 59 53 40 36 42 54 42 41 41 43 31 40 33 24 23 30 33 29 32 27 22 34 26 19 15 10 15 16 8 4 8
30 30 28 14 14 10 4 8 13 14 12 22 21 43 59 50 51 63 55 56 35 45 46 42 41 24 30 34 33 33 34 31 27 22 24 42 29 39 34 20 9 18 14 11 5
28 27 26 15 9 10 9 12 12 6 11 17 25 1 27 68 10 64 62 61 50 40 34 41 43 31 34 39 36 32 17 19 24 23 31 31 22 22 34 29 13 15 18 20 17
23 21 20 19 9 9 11 12 7 12 14 9 13 15 23 60 57 25 74 63 52 40 42 44 36 34 33 33 33 31 11 19 25 27 28 37 30 26 32 26 19 19 24 26 22
21 15 15 5 4 17 9 8 12 14 10 5 8 18 30 33 49 37 58 54 47 44 46 41 31 27 35 31 29 30 28 18 19 23 21 37 29 26 24 22 22 24 31 28 26
21 14 17 7 13 15 5 15 18 7 14 16 14 30 31 37 41 45 53 49 56 48 30 34 39 42 29 45 28 38 39 25 28 26 25 13 19 24 26 30 31 33 31 30 31
19 17 9 8 11 4 18 19 10 23 20 22 36 35 35 37 31 48 53 54 54 50 47 37 42 49 36 39 39 34 38 42 41 24 20 30 27 27 30 28 31 34 29 24 32
9 8 2 9 5 6 15 29 30 27 6 15 31 32 31 34 42 48 50 55 56 57 46 13 31 38 44 38 42 38 33 33 25 35 24 22 38 23 40 33 30 30 27 25 26
4 10 3 2 5 18 18 27 28 33 22 23 28 30 35 36 37 43 48 41 58 57 45 34 24 29 36 36 39 33 21 27 26 29 18 26 20 36 35 38 32 29 22 22 22
8 7 4 3 17 20 22 28 22 37 38 36 31 33 31 31 34 36 44 46 68 54 53 39 23 26 40 37 35 32 37 31 21 29 21 7 16 23 39 34 45 35 25 21 19
12 1 4 4 11 13 24 26 36 32 33 42 43 36 19 27 29 37 35 46 39 48 50 33 17 26 30 36 38 26 39 35 33 24 21 26 17 34 32 39 38 37 26 22 20
11 7 7 7 19 19 22 27 29 36 46 55 49 33 22 29 20 21 26 13 25 45 54 30 24 35 29 35 34 38 32 33 33 20 25 19 36 39 38 35 38 39 27 24 21
10 5 8 4 8 15 21 23 35 35 45 47 49 43 33 19 29 24 17 8 16 30 39 30 25 32 31 19 42 38 39 32 28 29 27 3 35 41 38 39 44 36 24 19 19
8 10 6 21 23 27 18 26 35 39 20 54 42 45 36 37 16 34 19 25 13 25 39 32 25 29 22 23 21 39 38 42 40 34 29 32 28 23 51 44 36 32 26 25 17
8 13 12 4 11 14 19 27 24 26 41 62 34 28 38 35 15 32 35 36 36 29 32 36 25 23 26 20 18 23 19 18 24 23 10 11 35 34 34 36 29 26 23 20 16
Wind_Direction_500mb
301 302 303 306 305 306 313 310 315 320 323 323 328 336 336 339 333 350 32 244 232 210 190 186 199 215 225 241 246 265 267 305 93 82 105 135 56 86 50 101 57 68 49 134 155
298 299 300 305 305 307 307 307 311 312 315 317 321 329 334 338 329 306 273 280 183 180 166 186 196 207 220 227 232 245 261 283 21 47 62 94 10 31 336 158 135 104 103 141 155
292 291 296 299 298 302 306 307 310 309 309 311 315 321 331 335 304 109 354 72 151 157 171 201 213 214 231 226 220 234 261 90 145 39 343 349 331 4 304 47 89 138 144 155 161
286 286 287 292 296 297 300 306 309 308 308 309 311 315 325 341 321 256 322 175 153 171 209 206 219 220 238 229 231 245 254 293 135 163 309 319 340 308 35 70 64 104 145 161 169
289 286 286 289 291 292 295 300 306 307 306 308 309 314 327 302 300 254 254 197 177 207 205 208 216 222 234 239 233 223 264 226 235 253 277 313 294 33 110 87 104 118 139 158 170
301 295 291 288 287 289 290 293 298 302 303 304 307 308 311 280 288 255 195 210 201 211 220 217 227 230 256 260 249 220 239 251 229 239 260 284 276 226 102 122 125 136 140 155 166
320 314 304 299 295 288 288 289 294 296 301 302 301 301 278 252 263 233 204 208 224 221 235 225 222 227 224 258 247 263 258 241 244 231 247 293 251 189 118 145 144 148 148 151 163
322 322 322 316 305 295 286 287 290 293 296 297 293 288 266 258 219 222 219 225 225 225 226 230 220 233 242 238 257 240 234 241 212 219 217 243 281 114 141 169 165 159 148 154 164
327 320 321 322 320 309 301 289 288 289 291 287 292 243 259 239 235 230 220 214 217 220 216 222 214 223 215 236 223 218 232 221 226 192 222 218 143 127 122 142 169 156 157 172 166
336 333 325 320 322 320 315 309 292 283 278 261 243 253 241 236 215 198 202 200 202 204 203 206 211 220 230 212 225 209 218 231 235 171 218 216 251 121 111 72 127 153 167 177 179
338 336 331 327 332 336 343 355 268 226 223 233 189 228 69 205 197 206 204 194 194 197 215 203 209 214 217 220 237 255 238 223 213 113 188 226 225 139 73 85 44 53 156 181 195
336 340 336 331 339 8 14 342 17 326 293 250 252 244 233 193 237 212 191 195 204 206 213 195 225 228 229 223 228 250 245 245 239 140 211 236 233 153 95 84 83 70 34 226 195
337 340 342 345 11 27 360 19 342 334 268 272 235 231 225 226 234 219 197 202 200 217 208 225 217 225 224 214 227 229 233 227 232 190 194 258 219 195 164 143 105 84 92 105 246
334 342 348 10 36 360 64 342 336 325 274 261 208 234 223 218 233 223 208 211 222 218 225 222 235 219 198 228 212 225 218 244 241 209 221 210 236 221 162 138 125 105 86 79 98
332 342 353 14 328 360 308 326 311 292 281 79 145 183 210 200 197 203 208 214 222 216 224 213 227 194 226 215 212 235 243 199 235 237 244 221 238 269 149 163 115 88 87 87 84
331 339 359 7 349 310 325 314 306 235 243 185 157 212 208 210 228 199 199 210 221 227 226 236 205 219 218 221 225 223 174 224 238 233 229 237 220 217 173 134 129 104 92 80 81
334 327 337 350 328 315 308 238 231 251 99 239 218 200 221 204 220 219 193 198 208 214 218 213 209 226 217 215 196 204 202 203 206 215 228 212 219 77 106 113 113 114 99 92 91
345 328 318 313 302 314 267 227 243 320 292 344 301 285 229 228 207 213 193 201 211 212 205 208 216 195 201 222 192 205 205 227 197 213 210 173 201 129 121 118 116 107 102 102 93
354 5 322 297 275 259 257 229 254 257 356 328 321 294 263 236 225 215 212 209 202 214 224 204 224 182 197 219 207 198 226 238 273 273 252 164 101 124 138 126 129 110 106 95 93
349 317 154 315 252 236 245 254 278 274 296 299 287 290 279 237 216 212 204 211 209 213 220 240 212 197 196 206 236 244 201 226 241 250 221 157 167 171 164 146 140 127 113 110 91
10 252 352 287 229 221 243 255 256 275 273 266 288 314 308 305 296 230 219 212 207 200 215 235 240 176 188 206 203 217 228 231 238 236 259 237 194 136 147 152 141 115 115 109 99
303 242 354 28 247 240 253 260 279 284 281 251 266 283 281 313 307 279 218 223 193 196 207 214 212 222 202 196 222 213 214 218 231 221 261 70 87 151 137 143 128 128 131 121 106
267 34 284 288 268 267 265 259 277 276 256 264 246 257 276 297 298 258 260 211 198 194 200 191 224 220 186 201 210 221 208 221 225 279 241 248 135 152 129 119 141 135 136 131 119
281 236 153 250 280 292 296 286 273 269 262 257 255 246 268 269 260 284 265 164 193 195 197 195 223 233 193 197 195 209 226 221 193 223 239 212 146 154 151 148 143 145 152 135 116
266 25 5 253 279 266 275 284 288 285 269 239 249 246 248 273 318 227 331 98 194 216 189 206 225 233 258 223 195 193 218 202 219 221 241 198 159 174 163 156 152 138 135 136 110
288 312 248 279 286 285 250 268 279 276 276 283 229 231 242 250 222 282 347 320 210 186 184 192 216 229 228 250 188 191 198 208 213 220 226 250 144 156 156 144 137 147 154 119 110
251 260 271 240 296 301 270 283 280 262 265 247 252 242 239 261 259 301 293 288 289 301 197 187 218 223 209 201 206 199 209 210 212 219 232 214 124 121 130 134 143 131 122 124 113
Wind_Speed_850mb
42 45 44 42 43 43 39 42 41 40 39 42 44 43 48 45 22 10 3 11 16 12 23 17 19 19 19 26 24 23 24 11 6 12 25 10 8 15 11 13 6 11 20 29 38
43 46 48 42 46 43 43 42 42 41 41 41 42 42 45 45 10 4 9 3 8 16 24 26 25 22 29 25 21 26 24 6 21 12 15 11 7 11 10 20 27 16 15 33 40
44 43 48 45 41 45 42 41 39 42 42 41 41 41 40 43 19 9 5 0 9 19 20 23 20 24 32 27 30 26 31 18 11 9 11 9 13 15 12 12 20 27 24 32 36
46 47 49 49 45 41 42 40 37 38 41 41 40 39 36 20 10 5 5 4 11 15 16 26 27 32 33 31 33 29 29 4 6 1 10 17 15 11 5 24 18 25 25 31 31
48 50 50 49 49 45 44 40 38 36 37 37 37 37 35 17 12 8 11 10 12 7 22 25 30 33 34 34 33 24 35 24 18 16 14 17 14 9 5 19 19 27 27 28 28
42 47 51 53 51 49 45 41 37 36 35 34 32 31 22 30 6 8 8 14 15 17 21 25 23 28 32 36 27 29 39 28 24 23 19 20 13 7 23 18 22 24 25 24 25
36 37 39 48 49 49 49 44 39 36 34 30 29 27 26 35 13 11 16 14 18 20 21 23 23 20 24 25 30 31 22 27 30 28 23 12 21 19 23 15 21 19 21 23 24
39 41 42 41 42 42 45 44 39 36 33 28 24 19 24 13 17 21 22 22 19 20 21 18 24 27 31 16 14 25 30 30 36 32 23 17 7 32 20 17 22 20 19 21 22
36 37 40 41 40 42 40 37 34 32 27 22 16 14 34 22 28 26 30 30 24 19 19 17 25 31 29 25 26 29 30 38 38 33 22 25 16 26 21 4 10 21 22 21 26
41 41 36 35 39 38 37 28 19 23 21 14 18 15 41 23 21 26 26 34 32 24 22 25 27 27 28 27 29 32 35 33 35 30 29 27 31 25 20 4 6 11 21 21 25
38 39 40 36 31 29 27 17 10 9 31 33 14 30 3 25 18 24 29 34 39 32 33 40 30 33 41 39 38 28 27 41 17 12 25 33 28 8 17 10 6 5 8 22 23
36 37 34 33 26 16 19 14 9 15 25 42 52 46 32 18 16 31 34 40 41 36 40 27 40 40 35 29 31 34 27 26 24 24 14 24 17 9 8 12 14 10 5 6 19
32 33 32 25 18 16 8 2 11 18 19 36 57 62 59 53 40 36 42 54 42 41 41 43 31 40 33 24 23 30 33 29 32 27 22 34 26 19 15 10 15 16 8 4 8
30 30 28 14 14 10 4 8 13 14 12 22 21 43 59 50 51 63 55 56 35 45 46 42 41 24 30 34 33 33 34 31 27 22 24 42 29 39 34 20 9 18 14 11 5
28 27 26 15 9 10 9 12 12 6 11 17 25 1 27 68 10 64 62 61 50 40 34 41 43 31 34 39 36 32 17 19 24 23 31 31 22 22 34 29 13 15 18 20 17
23 21 20 19 9 9 11 12 7 12 14 9 13 15 23 60 57 25 74 63 52 40 42 44 36 34 33 33 33 31 11 19 25 27 28 37 30 26 32 26 19 19 24 26 22
21 15 15 5 4 17 9 8 12 14 10 5 8 18 30 33 49 37 58 54 47 44 46 41 31 27 35 31 29 30 28 18 19 23 21 37 29 26 24 22 22 24 31 28 26
21 14 17 7 13 15 5 15 18 7 14 16 14 30 31 37 41 45 53 49 56 48 30 34 39 42 29 45 28 38 39 25 28 26 25 13 19 24 26 30 31 33 31 30 31
19 17 9 8 11 4 18 19 10 23 20 22 36 35 35 37 31 48 53 54 54 50 47 37 42 49 36 39 39 34 38 42 41 24 20 30 27 27 30 28 31 34 29 24 32
9 8 2 9 5 6 15 29 30 27 6 15 31 32 31 34 42 48 50 55 56 57 46 13 31 38 44 38 42 38 33 33 25 35 24 22 38 23 40 33 30 30 27 25 26
4 10 3 2 5 18 18 27 28 33 22 23 28 30 35 36 37 43 48 41 58 57 45 34 24 29 36 36 39 33 21 27 26 29 18 26 20 36 35 38 32 29 22 22 22
8 7 4 3 17 20 22 28 22 37 38 36 31 33 31 31 34 36 44 46 68 54 53 39 23 26 40 37 35 32 37 31 21 29 21 7 16 23 39 34 45 35 25 21 19
12 1 4 4 11 13 24 26 36 32 33 42 43 36 19 27 29 37 35 46 39 48 50 33 17 26 30 36 38 26 39 35 33 24 21 26 17 34 32 39 38 37 26 22 20
11 7 7 7 19 19 22 27 29 36 46 55 49 33 22 29 20 21 26 13 25 45 54 30 24 35 29 35 34 38 32 33 33 20 25 19 36 39 38 35 38 39 27 24 21
10 5 8 4 8 15 21 23 35 35 45 47 49 43 33 19 29 24 17 8 16 30 39 30 25 32 31 19 42 38 39 32 28 29 27 3 35 41 38 39 44 36 24 19 19
8 10 6 21 23 27 18 26 35 39 20 54 42 45 36 37 16 34 19 25 13 25 39 32 25 29 22 23 21 39 38 42 40 34 29 32 28 23 51 44 36 32 26 25 17
8 13 12 4 11 14 19 27 24 26 41 62 34 28 38 35 15 32 35 36 36 29 32 36 25 23 26 20 18 23 19 18 24 23 10 11 35 34 34 36 29 26 23 20 16
Wind_Direction_850mb
301 302 303 306 305 306 313 310 315 320 323 323 328 336 336 339 333 350 32 244 232 210 190 186 199 215 225 241 246 265 267 305 93 82 105 135 56 86 50 101 57 68 49 134 155
298 299 300 305 305 307 307 307 311 312 315 317 321 329 334 338 329 306 273 280 183 180 166 186 196 207 220 227 232 245 261 283 21 47 62 94 10 31 336 158 135 104 103 141 155
292 291 296 299 298 302 306 307 310 309 309 311 315 321 331 335 304 109 354 72 151 157 171 201 213 214 231 226 220 234 261 90 145 39 343 349 331 4 304 47 89 138 144 155 161
286 286 287 292 296 297 300 306 309 308 308 309 311 315 325 341 321 256 322 175 153 171 209 206 219 220 238 229 231 245 254 293 135 163 309 319 340 308 35 70 64 104 145 161 169
289 286 286 289 291 292 295 300 306 307 306 308 309 314 327 302 300 254 254 197 177 207 205 208 216 222 234 239 233 223 264 226 235 253 277 313 294 33 110 87 104 118 139 158 170
301 295 291 288 287 289 290 293 298 302 303 304 307 308 311 280 288 255 195 210 201 211 220 217 227 230 256 260 249 220 239 251 229 239 260 284 276 226 102 122 125 136 140 155 166
320 314 304 299 295 288 288 289 294 296 301 302 301 301 278 252 263 233 204 208 224 221 235 225 222 227 224 258 247 263 258 241 244 231 247 293 251 189 118 145 144 148 148 151 163
322 322 322 316 305 295 286 287 290 293 296 297 293 288 266 258 219 222 219 225 225 225 226 230 220 233 242 238 257 240 234 241 212 219 217 243 281 114 141 169 165 159 148 154 164
327 320 321 322 320 309 301 289 288 289 291 287 292 243 259 239 235 230 220 214 217 220 216 222 214 223 215 236 223 218 232 221 226 192 222 218 143 127 122 142 169 156 157 172 166
336 333 325 320 322 320 315 309 292 283 278 261 243 253 241 236 215 198 202 200 202 204 203 206 211 220 230 212 225 209 218 231 235 171 218 216 251 121 111 72 127 153 167 177 179
338 336 331 327 332 336 343 355 268 226 223 233 189 228 69 205 197 206 204 194 194 197 215 203 209 214 217 220 237 255 238 223 213 113 188 226 225 139 73 85 44 53 156 181 195
336 340 336 331 339 8 14 342 17 326 293 250 252 244 233 193 237 212 191 195 204 206 213 195 225 228 229 223 228 250 245 245 239 140 211 236 233 153 95 84 83 70 34 226 195
337 340 342 345 11 27 360 19 342 334 268 272 235 231 225 226 234 219 197 202 200 217 208 225 217 225 224 214 227 229 233 227 232 190 194 258 219 195 164 143 105 84 92 105 246
334 342 348 10 36 360 64 342 336 325 274 261 208 234 223 218 233 223 208 211 222 218 225 222 235 219 198 228 212 225 218 244 241 209 221 210 236 221 162 138 125 105 86 79 98
332 342 353 14 328 360 308 326 311 292 281 79 145 183 210 200 197 203 208 214 222 216 224 213 227 194 226 215 212 235 243 199 235 237 244 221 238 269 149 163 115 88 87 87 84
331 339 359 7 349 310 325 314 306 235 243 185 157 212 208 210 228 199 199 210 221 227 226 236 205 219 218 221 225 223 174 224 238 233 229 237 220 217 173 134 129 104 92 80 81
334 327 337 350 328 315 308 238 231 251 99 239 218 200 221 204 220 219 193 198 208 214 218 213 209 226 217 215 196 204 202 203 206 215 228 212 219 77 106 113 113 114 99 92 91
345 328 318 313 302 314 267 227 243 320 292 344 301 285 229 228 207 213 193 201 211 212 205 208 216 195 201 222 192 205 205 227 197 213 210 173 201 129 121 118 116 107 102 102 93
354 5 322 297 275 259 257 229 254 257 356 328 321 294 263 236 225 215 212 209 202 214 224 204 224 182 197 219 207 198 226 238 273 273 252 164 101 124 138 126 129 110 106 95 93
349 317 154 315 252 236 245 254 278 274 296 299 287 290 279 237 216 212 204 211 209 213 220 240 212 197 196 206 236 244 201 226 241 250 221 157 167 171 164 146 140 127 113 110 91
10 252 352 287 229 221 243 255 256 275 273 266 288 314 308 305 296 230 219 212 207 200 215 235 240 176 188 206 203 217 228 231 238 236 259 237 194 136 147 152 141 115 115 109 99
303 242 354 28 247 240 253 260 279 284 281 251 266 283 281 313 307 279 218 223 193 196 207 214 212 222 202 196 222 213 214 218 231 221 261 70 87 151 137 143 128 128 131 121 106
267 34 284 288 268 267 265 259 277 276 256 264 246 257 276 297 298 258 260 211 198 194 200 191 224 220 186 201 210 221 208 221 225 279 241 248 135 152 129 119 141 135 136 131 119
281 236 153 250 280 292 296 286 273 269 262 257 255 246 268 269 260 284 265 164 193 195 197 195 223 233 193 197 195 209 226 221 193 223 239 212 146 154 151 148 143 145 152 135 116
266 25 5 253 279 266 275 284 288 285 269 239 249 246 248 273 318 227 331 98 194 216 189 206 225 233 258 223 195 193 218 202 219 221 241 198 159 174 163 156 152 138 135 136 110
288 312 248 279 286 285 250 268 279 276 276 283 229 231 242 250 222 282 347 320 210 186 184 192 216 229 228 250 188 191 198 208 213 220 226 250 144 156 156 144 137 147 154 119 110
251 260 271 240 296 301 270 283 280 262 265 247 252 242 239 261 259 301 293 288 289 301 197 187 218 223 209 201 206 199 209 210 212 219 232 214 124 121 130 134 143 131 122 124 113